Regional Weather Roundup
Issued by NWS

Home | Current Version | Previous Version | Text Only | Print | Product List | Glossary Off
Versions: 1 2 3 4 5 6 7 8 9 10 11 12 13 14 15 16 17 18 19 20 21 22 23 24 25 26 27 28 29 30 31 32 33 34 35 36 37 38 39 40 41 42 43 44 45 46 47 48 49 50

000
ASUS43 KLSX 212107
RWRMO

WEATHER SUMMARY FOR MISSOURI
NATIONAL WEATHER SERVICE SPRINGFIELD MO
400 PM CDT THU AUG 21 2014

NOTE: "FAIR" INDICATES FEW OR NO CLOUDS BELOW 12,000 FEET WITH NO
       SIGNIFICANT WEATHER AND/OR OBSTRUCTIONS TO VISIBILITY.
       CURRENT SKY AND/OR WEATHER CONDITIONS ARE NOT AVAILABLE FOR
       CHILLICOTHE AND FARMINGTON.

MOZ001>031-035>038-043-044-053-054-212200-
...NORTHERN AND WESTERN MISSOURI...

CITY           SKY/WX    TMP DP  RH WIND       PRES   REMARKS
KANSAS CTY INT MOSUNNY   94  74  52 S18       29.87F HX 104
KANSAS C DTWN  MOSUNNY   96  72  45 S14       29.85F HX 104
LEE`S SUMMIT   SUNNY     93  70  46 S16G23    29.89F HX  99
ST JOSEPH      MOSUNNY   92  76  59 S15G23    29.82F HX 104
CHILLICOTHE      N/A     88  76  67 S12       29.88F HX  99
KIRKSVILLE     MOSUNNY   87  76  69 S7        29.91F HX  97

$$
MOZ066>068-077>081-088>096-101>105-212200-
...SOUTHWEST MISSOURI...

CITY           SKY/WX    TMP DP  RH WIND       PRES   REMARKS
SPRINGFIELD    SUNNY     97  63  32 SW14      29.97F HX  98
JOPLIN         MOSUNNY   95  70  44 S15G23    29.95F HX 101

$$
MOZ032>034-039>042-045>050-055>058-069>072-212200-
...CENTRAL MISSOURI...

CITY           SKY/WX    TMP DP  RH WIND       PRES   REMARKS
COLUMBIA       SUNNY     93  72  50 SW14      29.93F HX 101
JEFFERSON CITY SUNNY     95  71  45 SW12      29.91F HX 102
ROLLA          MOSUNNY   93  71  48 S10       29.96F HX 100
SEDALIA        MOSUNNY   95  73  48 S16G23    29.92F HX 104
WHITEMAN AFB   MOSUNNY   93  67  42 SW16      29.90F HX  96
OSAGE BEACH    MOSUNNY   97  70  41 S9        29.94S HX 103

$$
MOZ051-052-059>065-212200-
...EAST CENTRAL MISSOURI...

CITY           SKY/WX    TMP DP  RH WIND       PRES   REMARKS
ST LOUIS INTL  PTSUNNY   95  73  48 SW10      29.95F HX 104
SPIRIT OF STL  MOSUNNY   93  74  53 S9        29.93F HX 103
ST CHARLES     MOSUNNY   93  73  52 SW12      29.92F HX 102

$$
MOZ072>076-082>087-097>100-106>115-212200-
...SOUTH CENTRAL AND SOUTHEAST MISSOURI...

CITY           SKY/WX    TMP DP  RH WIND       PRES   REMARKS
CAPE GIRARDEAU PTSUNNY   88  75  65 S10G20    30.00S HX  97
FARMINGTON     PTSUNNY   93  66  40 SW12      30.00F HX  96
POPLAR BLUFF   PTSUNNY   93  73  52 S12       29.98F HX 102
WEST PLAINS    MOSUNNY   92  69  47 S12       30.03F HX  97

$$



USA.gov is the U.S. government's official web portal to all federal, state and local government web resources and services.